N72RD KNBC-KNQX

Flight info

Callsign N72RD
Flight time 2h 15m
Altitude 12000
Route SVN SGJ ORL LBV EYW
Aircraft CORS/L-SG/S

Departure

Time 2026-05-09 16:51
Airport Beaufort MCAS - Merritt Field (KNBC)

Arrival

Time 2026-05-09 19:06
Airport Naval Air Station Key West/Boca Chica Field (KNQX)
Time Latitude Longitude Altitude Speed Heading
2026-05-09 16:38 32.46753 -80.72796 43 ft 0 kts 360°
2026-05-09 16:48 32.46754 -80.72796 43 ft 1 kts 360°
2026-05-09 16:48 32.46781 -80.72797 43 ft 5 kts 359°
2026-05-09 16:48 32.46809 -80.72800 43 ft 7 kts 341°
2026-05-09 16:48 32.46859 -80.72821 43 ft 9 kts 336°
2026-05-09 16:49 32.46918 -80.72852 43 ft 10 kts 335°
2026-05-09 16:49 32.46974 -80.72903 44 ft 13 kts 313°
2026-05-09 16:49 32.47039 -80.72990 45 ft 14 kts 310°
2026-05-09 16:50 32.47309 -80.72774 41 ft 58 kts 22°
2026-05-09 16:50 32.47681 -80.72387 40 ft 92 kts 45°
2026-05-09 16:50 32.48277 -80.71765 59 ft 136 kts 40°
2026-05-09 16:50 32.49058 -80.70900 236 ft 164 kts 44°
2026-05-09 16:51 32.49871 -80.69895 565 ft 176 kts 54°
2026-05-09 16:51 32.49955 -80.68519 843 ft 179 kts 119°
2026-05-09 16:51 32.48922 -80.67749 1194 ft 188 kts 170°
2026-05-09 16:51 32.47620 -80.68147 1369 ft 206 kts 206°
2026-05-09 16:52 32.46305 -80.68989 1548 ft 217 kts 208°
2026-05-09 16:52 32.45278 -80.70235 1991 ft 215 kts 239°
2026-05-09 16:52 32.44659 -80.71818 2491 ft 207 kts 246°
2026-05-09 16:52 32.44093 -80.73345 2976 ft 198 kts 241°
2026-05-09 16:53 32.43382 -80.74680 3458 ft 188 kts 235°
2026-05-09 16:53 32.42572 -80.75894 3956 ft 189 kts 231°
2026-05-09 16:53 32.41676 -80.77045 4459 ft 188 kts 228°
2026-05-09 16:53 32.40758 -80.78113 4957 ft 185 kts 227°
2026-05-09 16:54 32.39826 -80.79149 5444 ft 180 kts 227°
2026-05-09 16:54 32.38918 -80.80135 5935 ft 174 kts 228°
2026-05-09 16:54 32.38004 -80.81063 6435 ft 172 kts 225°
2026-05-09 16:54 32.37040 -80.81902 6909 ft 175 kts 223°
2026-05-09 16:55 32.36035 -80.82770 7373 ft 183 kts 224°
2026-05-09 16:55 32.34995 -80.83725 7797 ft 194 kts 225°
2026-05-09 16:55 32.33914 -80.84722 8233 ft 204 kts 225°
2026-05-09 16:55 32.32758 -80.85758 8667 ft 213 kts 224°
2026-05-09 16:56 32.31553 -80.86830 9105 ft 220 kts 225°
2026-05-09 16:56 32.30318 -80.87945 9545 ft 223 kts 225°
2026-05-09 16:56 32.29073 -80.89072 9974 ft 225 kts 225°
2026-05-09 16:56 32.27837 -80.90185 10359 ft 226 kts 225°
2026-05-09 16:57 32.26584 -80.91309 10751 ft 227 kts 225°
2026-05-09 16:57 32.25316 -80.92452 11160 ft 227 kts 225°
2026-05-09 16:57 32.24055 -80.93588 11556 ft 229 kts 225°
2026-05-09 16:57 32.22778 -80.94740 11785 ft 237 kts 225°
2026-05-09 16:58 32.21449 -80.95939 11899 ft 244 kts 225°
2026-05-09 16:58 32.20095 -80.97146 11941 ft 243 kts 225°
2026-05-09 16:58 32.18740 -80.98360 11966 ft 243 kts 225°
2026-05-09 16:58 32.17403 -80.99568 11973 ft 242 kts 225°
2026-05-09 16:59 32.16061 -81.00771 11976 ft 241 kts 225°
2026-05-09 16:59 32.14745 -81.01949 11979 ft 240 kts 225°
2026-05-09 16:59 32.13408 -81.03149 11988 ft 239 kts 225°
2026-05-09 16:59 32.12075 -81.04346 11989 ft 239 kts 225°
2026-05-09 17:00 32.10753 -81.05531 11960 ft 238 kts 225°
2026-05-09 17:00 32.09455 -81.06693 11958 ft 238 kts 225°
2026-05-09 17:00 32.08129 -81.07881 11957 ft 238 kts 225°
2026-05-09 17:00 32.06807 -81.09065 11956 ft 238 kts 225°
2026-05-09 17:01 32.05480 -81.10252 11958 ft 238 kts 225°
2026-05-09 17:01 32.04171 -81.11424 11962 ft 239 kts 225°
2026-05-09 17:01 32.02818 -81.12591 11950 ft 244 kts 219°
2026-05-09 17:01 32.01184 -81.13303 11952 ft 254 kts 204°
2026-05-09 17:02 31.99464 -81.13762 11958 ft 257 kts 200°
2026-05-09 17:02 31.97696 -81.14151 11959 ft 259 kts 199°
2026-05-09 17:02 31.95931 -81.14508 11956 ft 259 kts 199°
2026-05-09 17:02 31.94129 -81.14810 11955 ft 263 kts 194°
2026-05-09 17:03 31.92287 -81.14891 11948 ft 267 kts 189°
2026-05-09 17:04 31.79555 -81.15525 11966 ft 259 kts 200°
2026-05-09 17:05 31.77802 -81.15897 11970 ft 259 kts 199°
2026-05-09 17:05 31.76018 -81.16264 11971 ft 260 kts 199°
2026-05-09 17:05 31.74227 -81.16625 11971 ft 260 kts 198°
2026-05-09 17:05 31.72397 -81.16840 11973 ft 265 kts 192°
2026-05-09 17:06 31.70577 -81.16931 11974 ft 265 kts 192°
2026-05-09 17:06 31.68745 -81.17114 11977 ft 263 kts 195°
2026-05-09 17:06 31.66917 -81.17321 11980 ft 263 kts 194°
2026-05-09 17:06 31.65084 -81.17474 11982 ft 264 kts 193°
2026-05-09 17:07 31.63271 -81.17630 11984 ft 263 kts 193°
2026-05-09 17:07 31.62033 -81.17753 11984 ft 263 kts 194°
2026-05-09 17:07 31.59603 -81.17990 11984 ft 263 kts 193°
2026-05-09 17:07 31.57792 -81.18151 11984 ft 264 kts 193°
2026-05-09 17:08 31.55960 -81.18321 11987 ft 263 kts 193°
2026-05-09 17:08 31.52298 -81.18666 11996 ft 263 kts 193°
2026-05-09 17:08 31.50791 -81.18805 12000 ft 263 kts 193°
2026-05-09 17:09 31.48975 -81.18975 11999 ft 263 kts 193°
2026-05-09 17:09 31.47145 -81.19145 12003 ft 263 kts 193°
2026-05-09 17:09 31.45317 -81.19312 12001 ft 263 kts 193°
2026-05-09 17:09 31.43505 -81.19474 12005 ft 263 kts 193°
2026-05-09 17:10 31.41677 -81.19634 12002 ft 263 kts 193°
2026-05-09 17:10 31.39834 -81.19695 12002 ft 268 kts 185°
2026-05-09 17:10 31.37990 -81.19382 12006 ft 271 kts 178°
2026-05-09 17:10 31.36152 -81.19385 11999 ft 260 kts 194°
2026-05-09 17:11 31.34355 -81.19662 12004 ft 258 kts 197°
2026-05-09 17:11 31.32593 -81.19993 12005 ft 258 kts 198°
2026-05-09 17:11 31.30826 -81.20348 12001 ft 257 kts 198°
2026-05-09 17:11 31.29054 -81.20712 11999 ft 257 kts 198°
2026-05-09 17:12 31.27277 -81.21052 11997 ft 259 kts 195°
2026-05-09 17:12 31.25485 -81.21189 11999 ft 262 kts 190°
2026-05-09 17:12 31.23659 -81.21293 11998 ft 261 kts 192°
2026-05-09 17:12 31.21854 -81.21495 11999 ft 259 kts 194°
2026-05-09 17:13 31.20072 -81.21681 12000 ft 260 kts 192°
2026-05-09 17:13 31.18252 -81.21824 11997 ft 259 kts 192°
2026-05-09 17:13 31.16477 -81.21983 11997 ft 258 kts 193°
2026-05-09 17:13 31.14683 -81.22164 11998 ft 258 kts 193°
2026-05-09 17:14 31.12895 -81.22329 11996 ft 257 kts 192°
2026-05-09 17:14 31.11100 -81.22486 11995 ft 257 kts 192°
2026-05-09 17:14 31.09338 -81.22650 11997 ft 256 kts 193°
2026-05-09 17:14 31.07561 -81.22818 11997 ft 256 kts 192°
2026-05-09 17:15 31.05762 -81.22983 11997 ft 256 kts 192°
2026-05-09 17:15 31.04010 -81.23142 11999 ft 256 kts 192°
2026-05-09 17:15 31.02233 -81.23307 11997 ft 255 kts 192°
2026-05-09 17:15 31.00453 -81.23472 11999 ft 255 kts 192°
2026-05-09 17:16 30.98703 -81.23633 11999 ft 255 kts 192°
2026-05-09 17:17 30.86314 -81.24772 12005 ft 254 kts 192°
2026-05-09 17:18 30.84579 -81.24931 12009 ft 254 kts 192°
2026-05-09 17:18 30.82810 -81.25092 12009 ft 254 kts 192°
2026-05-09 17:18 30.81038 -81.25255 12011 ft 254 kts 192°
2026-05-09 17:18 30.79272 -81.25419 12011 ft 254 kts 192°
2026-05-09 17:19 30.77530 -81.25577 12013 ft 254 kts 192°
2026-05-09 17:19 30.75765 -81.25739 12014 ft 254 kts 192°
2026-05-09 17:19 30.74003 -81.25901 12015 ft 253 kts 192°
2026-05-09 17:19 30.72240 -81.26061 12018 ft 253 kts 192°
2026-05-09 17:20 30.70497 -81.26222 12018 ft 253 kts 192°
2026-05-09 17:20 30.68734 -81.26383 12019 ft 253 kts 192°
2026-05-09 17:20 30.66971 -81.26544 12018 ft 253 kts 192°
2026-05-09 17:20 30.65228 -81.26703 12019 ft 253 kts 192°
2026-05-09 17:21 30.63470 -81.26865 12019 ft 253 kts 191°
2026-05-09 17:21 30.61706 -81.27025 12019 ft 253 kts 192°
2026-05-09 17:21 30.59946 -81.27186 12018 ft 253 kts 192°
2026-05-09 17:21 30.58200 -81.27346 12017 ft 253 kts 192°
2026-05-09 17:22 30.56437 -81.27507 12017 ft 252 kts 191°
2026-05-09 17:22 30.54693 -81.27665 12014 ft 249 kts 192°
2026-05-09 17:22 30.52962 -81.27822 12015 ft 247 kts 192°
2026-05-09 17:22 30.51276 -81.27977 12000 ft 244 kts 192°
2026-05-09 17:23 30.49581 -81.28133 12002 ft 242 kts 192°
2026-05-09 17:23 30.47909 -81.28284 12003 ft 241 kts 192°
2026-05-09 17:23 30.46239 -81.28436 12004 ft 239 kts 192°
2026-05-09 17:23 30.44597 -81.28586 12004 ft 238 kts 192°
2026-05-09 17:25 30.36405 -81.29333 12007 ft 234 kts 192°
2026-05-09 17:25 30.34772 -81.29482 12007 ft 234 kts 192°
2026-05-09 17:25 30.33161 -81.29628 12007 ft 234 kts 191°
2026-05-09 17:25 30.31538 -81.29774 12006 ft 233 kts 191°
2026-05-09 17:26 30.29925 -81.29922 12006 ft 233 kts 191°
2026-05-09 17:26 30.28314 -81.30068 12006 ft 233 kts 191°
2026-05-09 17:26 30.26689 -81.30215 12006 ft 233 kts 191°
2026-05-09 17:26 30.25621 -81.30312 12007 ft 232 kts 191°
2026-05-09 17:27 30.23481 -81.30506 12005 ft 232 kts 191°
2026-05-09 17:27 30.21871 -81.30652 12007 ft 232 kts 191°
2026-05-09 17:27 30.20802 -81.30749 12008 ft 232 kts 191°
2026-05-09 17:27 30.18664 -81.30943 12005 ft 231 kts 191°
2026-05-09 17:28 30.17574 -81.31042 12012 ft 231 kts 191°
2026-05-09 17:28 30.15992 -81.31185 12011 ft 231 kts 191°
2026-05-09 17:28 30.14380 -81.31331 12012 ft 231 kts 191°
2026-05-09 17:28 30.12791 -81.31475 12016 ft 231 kts 191°
2026-05-09 17:29 30.11183 -81.31620 12014 ft 231 kts 191°
2026-05-09 17:29 30.09568 -81.31766 12013 ft 231 kts 191°
2026-05-09 17:29 30.07974 -81.31911 12016 ft 231 kts 191°
2026-05-09 17:29 30.06378 -81.32055 12016 ft 231 kts 191°
2026-05-09 17:30 30.04771 -81.32200 12016 ft 231 kts 191°
2026-05-09 17:30 30.03185 -81.32342 12014 ft 230 kts 191°
2026-05-09 17:30 30.01584 -81.32488 12015 ft 230 kts 191°
2026-05-09 17:30 29.99971 -81.32635 12017 ft 231 kts 191°
2026-05-09 17:31 29.98373 -81.32778 12014 ft 231 kts 191°
2026-05-09 17:31 29.96789 -81.32927 12016 ft 231 kts 191°
2026-05-09 17:32 29.90321 -81.33035 12016 ft 232 kts 187°
2026-05-09 17:32 29.88693 -81.33061 12017 ft 233 kts 186°
2026-05-09 17:32 29.87065 -81.33051 12016 ft 234 kts 185°
2026-05-09 17:33 29.85439 -81.33047 12017 ft 233 kts 186°
2026-05-09 17:33 29.83826 -81.33063 12019 ft 234 kts 186°
2026-05-09 17:33 29.82187 -81.33072 12015 ft 235 kts 186°
2026-05-09 17:33 29.80562 -81.33073 12020 ft 236 kts 186°
2026-05-09 17:34 29.78903 -81.33077 12014 ft 237 kts 186°
2026-05-09 17:35 29.69028 -81.33114 11998 ft 235 kts 186°
2026-05-09 17:35 29.67419 -81.33118 12000 ft 234 kts 186°
2026-05-09 17:36 29.65779 -81.33123 12002 ft 234 kts 186°
2026-05-09 17:36 29.64171 -81.33129 12002 ft 233 kts 186°
2026-05-09 17:36 29.62527 -81.33136 12003 ft 233 kts 186°
2026-05-09 17:36 29.60898 -81.33140 12005 ft 233 kts 186°
2026-05-09 17:37 29.59296 -81.33145 12004 ft 233 kts 186°
2026-05-09 17:37 29.57672 -81.33151 12007 ft 233 kts 186°
2026-05-09 17:37 29.56063 -81.33158 12004 ft 233 kts 186°
2026-05-09 17:37 29.54435 -81.33162 12004 ft 232 kts 186°
2026-05-09 17:38 29.52814 -81.33167 12011 ft 233 kts 186°
2026-05-09 17:38 29.51205 -81.33175 12008 ft 233 kts 186°
2026-05-09 17:38 29.49580 -81.33179 12008 ft 234 kts 185°
2026-05-09 17:39 29.46321 -81.33190 12013 ft 235 kts 185°
2026-05-09 17:39 29.44682 -81.33196 12004 ft 235 kts 185°
2026-05-09 17:39 29.43044 -81.33201 11998 ft 235 kts 185°
2026-05-09 17:39 29.41398 -81.33208 12005 ft 234 kts 185°
2026-05-09 17:40 29.39769 -81.33213 12003 ft 234 kts 185°
2026-05-09 17:40 29.38140 -81.33217 12001 ft 233 kts 185°
2026-05-09 17:40 29.36532 -81.33223 12003 ft 233 kts 185°
2026-05-09 17:40 29.34907 -81.33228 12003 ft 233 kts 185°
2026-05-09 17:41 29.33282 -81.33235 12002 ft 233 kts 185°
2026-05-09 17:41 29.31654 -81.33241 12002 ft 233 kts 185°
2026-05-09 17:41 29.30045 -81.33245 12006 ft 233 kts 185°
2026-05-09 17:41 29.28418 -81.33252 12003 ft 233 kts 185°
2026-05-09 17:42 29.26793 -81.33258 11997 ft 233 kts 185°
2026-05-09 17:42 29.25166 -81.33263 11991 ft 233 kts 185°
2026-05-09 17:42 29.23544 -81.33267 11992 ft 233 kts 185°
2026-05-09 17:42 29.21937 -81.33273 11996 ft 232 kts 185°
2026-05-09 17:43 29.20300 -81.33280 11996 ft 232 kts 185°
2026-05-09 17:43 29.18700 -81.33284 11994 ft 232 kts 185°
2026-05-09 17:43 29.17076 -81.33292 11993 ft 232 kts 185°
2026-05-09 17:43 29.15479 -81.33296 11998 ft 233 kts 185°
2026-05-09 17:44 29.13852 -81.33298 12000 ft 233 kts 185°
2026-05-09 17:44 29.12217 -81.33306 11994 ft 233 kts 185°
2026-05-09 17:44 29.10612 -81.33313 11996 ft 233 kts 185°
2026-05-09 17:44 29.08982 -81.33318 11997 ft 233 kts 185°
2026-05-09 17:45 29.07360 -81.33321 11995 ft 233 kts 185°
2026-05-09 17:45 29.05731 -81.33328 11989 ft 233 kts 185°
2026-05-09 17:45 29.04134 -81.33336 11997 ft 232 kts 185°
2026-05-09 17:45 29.02505 -81.33339 11995 ft 233 kts 185°
2026-05-09 17:46 29.00877 -81.33343 11997 ft 232 kts 185°
2026-05-09 17:46 28.99271 -81.33350 12001 ft 232 kts 185°
2026-05-09 17:46 28.97660 -81.33356 11994 ft 232 kts 185°
2026-05-09 17:46 28.96033 -81.33361 11995 ft 232 kts 185°
2026-05-09 17:47 28.94430 -81.33365 11992 ft 231 kts 185°
2026-05-09 17:47 28.92814 -81.33374 11998 ft 231 kts 185°
2026-05-09 17:47 28.91202 -81.33379 11989 ft 231 kts 185°
2026-05-09 17:47 28.89588 -81.33382 11987 ft 231 kts 185°
2026-05-09 17:48 28.87969 -81.33387 11992 ft 232 kts 185°
2026-05-09 17:48 28.86355 -81.33394 11985 ft 232 kts 185°
2026-05-09 17:48 28.84762 -81.33400 11989 ft 232 kts 185°
2026-05-09 17:48 28.83142 -81.33404 11984 ft 232 kts 185°
2026-05-09 17:49 28.81516 -81.33409 11989 ft 232 kts 185°
2026-05-09 17:49 28.79925 -81.33416 11990 ft 232 kts 185°
2026-05-09 17:49 28.78305 -81.33420 11991 ft 232 kts 185°
2026-05-09 17:49 28.76686 -81.33425 11987 ft 232 kts 185°
2026-05-09 17:50 28.75083 -81.33432 11986 ft 232 kts 185°
2026-05-09 17:50 28.71839 -81.33441 11980 ft 232 kts 185°
2026-05-09 17:50 28.70245 -81.33448 11991 ft 232 kts 185°
2026-05-09 17:51 28.68614 -81.33454 11983 ft 232 kts 184°
2026-05-09 17:51 28.66993 -81.33458 11995 ft 232 kts 184°
2026-05-09 17:51 28.65396 -81.33463 11996 ft 232 kts 185°
2026-05-09 17:51 28.63775 -81.33470 11997 ft 232 kts 184°
2026-05-09 17:52 28.62161 -81.33476 11999 ft 232 kts 184°
2026-05-09 17:52 28.60556 -81.33480 12001 ft 232 kts 184°
2026-05-09 17:52 28.58919 -81.33486 12001 ft 232 kts 185°
2026-05-09 17:52 28.57316 -81.33492 12003 ft 233 kts 184°
2026-05-09 17:53 28.55688 -81.33473 11994 ft 233 kts 182°
2026-05-09 17:53 28.54067 -81.33471 11999 ft 233 kts 186°
2026-05-09 17:53 28.52441 -81.33564 11996 ft 232 kts 187°
2026-05-09 17:53 28.50847 -81.33635 12000 ft 232 kts 185°
2026-05-09 17:54 28.49213 -81.33668 12002 ft 233 kts 185°
2026-05-09 17:54 28.47607 -81.33713 12011 ft 233 kts 186°
2026-05-09 17:54 28.45982 -81.33781 12003 ft 234 kts 186°
2026-05-09 17:54 28.44342 -81.33840 12008 ft 235 kts 185°
2026-05-09 17:55 28.42728 -81.33886 12003 ft 234 kts 185°
2026-05-09 17:55 28.41084 -81.33937 12006 ft 234 kts 186°
2026-05-09 17:55 28.39451 -81.33997 12007 ft 234 kts 186°
2026-05-09 17:55 28.37807 -81.34053 12000 ft 234 kts 185°
2026-05-09 17:56 28.36199 -81.34104 12006 ft 234 kts 185°
2026-05-09 17:56 28.34569 -81.34159 12006 ft 233 kts 186°
2026-05-09 17:56 28.32943 -81.34215 12007 ft 233 kts 186°
2026-05-09 17:57 28.29698 -81.34321 12000 ft 233 kts 185°
2026-05-09 17:57 28.28069 -81.34375 12009 ft 233 kts 186°
2026-05-09 17:57 28.26466 -81.34428 12005 ft 233 kts 186°
2026-05-09 17:57 28.24834 -81.34483 12013 ft 233 kts 185°
2026-05-09 17:58 28.23222 -81.34537 12010 ft 234 kts 185°
2026-05-09 17:58 28.21584 -81.34590 12003 ft 233 kts 186°
2026-05-09 17:58 28.19963 -81.34645 12009 ft 234 kts 186°
2026-05-09 17:58 28.18321 -81.34703 12004 ft 234 kts 186°
2026-05-09 17:59 28.16707 -81.34754 11999 ft 234 kts 185°
2026-05-09 17:59 28.15080 -81.34805 11998 ft 233 kts 186°
2026-05-09 17:59 28.13450 -81.34860 11998 ft 233 kts 186°
2026-05-09 17:59 28.11826 -81.34916 12001 ft 234 kts 186°
2026-05-09 18:00 28.10195 -81.34969 12003 ft 234 kts 186°
2026-05-09 18:00 28.08579 -81.35022 12005 ft 234 kts 186°
2026-05-09 18:00 28.06940 -81.35078 11999 ft 236 kts 185°
2026-05-09 18:00 28.05288 -81.35133 11994 ft 237 kts 185°
2026-05-09 18:01 28.03661 -81.35188 11990 ft 236 kts 185°
2026-05-09 18:01 28.02009 -81.35239 11986 ft 237 kts 185°
2026-05-09 18:01 28.00355 -81.35293 11978 ft 236 kts 185°
2026-05-09 18:01 27.98731 -81.35349 11986 ft 235 kts 185°
2026-05-09 18:02 27.97092 -81.35406 11983 ft 236 kts 185°
2026-05-09 18:02 27.95437 -81.35456 11974 ft 236 kts 185°
2026-05-09 18:02 27.93799 -81.35509 11971 ft 235 kts 185°
2026-05-09 18:02 27.92163 -81.35566 11981 ft 236 kts 185°
2026-05-09 18:03 27.91065 -81.35601 11980 ft 236 kts 185°
2026-05-09 18:03 27.89421 -81.35657 11972 ft 236 kts 185°
2026-05-09 18:03 27.87788 -81.35711 11970 ft 234 kts 185°
2026-05-09 18:03 27.86154 -81.35767 11974 ft 234 kts 185°
2026-05-09 18:04 27.84531 -81.35819 11982 ft 234 kts 185°
2026-05-09 18:04 27.82897 -81.35871 11970 ft 234 kts 185°
2026-05-09 18:04 27.81276 -81.35925 11974 ft 233 kts 185°
2026-05-09 18:04 27.79658 -81.35978 11982 ft 232 kts 185°
2026-05-09 18:05 27.78038 -81.36035 11981 ft 232 kts 185°
2026-05-09 18:05 27.76432 -81.36087 11974 ft 232 kts 185°
2026-05-09 18:05 27.74814 -81.36138 11975 ft 232 kts 185°
2026-05-09 18:05 27.73199 -81.36190 11977 ft 231 kts 185°
2026-05-09 18:06 27.71596 -81.36245 11980 ft 231 kts 185°
2026-05-09 18:06 27.69983 -81.36297 11977 ft 232 kts 185°
2026-05-09 18:06 27.68392 -81.36349 11979 ft 231 kts 185°
2026-05-09 18:06 27.66772 -81.36403 11982 ft 231 kts 185°
2026-05-09 18:07 27.65170 -81.36457 11976 ft 232 kts 185°
2026-05-09 18:07 27.63556 -81.36508 11975 ft 231 kts 185°
2026-05-09 18:07 27.61924 -81.36562 11978 ft 232 kts 185°
2026-05-09 18:07 27.60322 -81.36617 11981 ft 232 kts 185°
2026-05-09 18:08 27.58702 -81.36670 11974 ft 232 kts 185°
2026-05-09 18:08 27.57091 -81.36721 11978 ft 232 kts 185°
2026-05-09 18:08 27.55471 -81.36774 11984 ft 233 kts 185°
2026-05-09 18:08 27.53856 -81.36828 11999 ft 234 kts 185°
2026-05-09 18:09 27.52225 -81.36881 12003 ft 235 kts 185°
2026-05-09 18:09 27.50554 -81.36935 11991 ft 235 kts 185°
2026-05-09 18:09 27.48921 -81.36989 11991 ft 234 kts 185°
2026-05-09 18:09 27.47307 -81.37042 11990 ft 233 kts 185°
2026-05-09 18:10 27.45682 -81.37095 11999 ft 233 kts 185°
2026-05-09 18:10 27.44606 -81.37131 11999 ft 233 kts 185°
2026-05-09 18:10 27.42425 -81.37202 12003 ft 234 kts 185°
2026-05-09 18:10 27.40793 -81.37254 11994 ft 234 kts 185°
2026-05-09 18:11 27.39178 -81.37308 11998 ft 234 kts 185°
2026-05-09 18:11 27.37536 -81.37362 12000 ft 235 kts 185°
2026-05-09 18:11 27.35899 -81.37416 12001 ft 235 kts 185°
2026-05-09 18:11 27.34273 -81.37469 11989 ft 236 kts 185°
2026-05-09 18:12 27.32622 -81.37523 11999 ft 236 kts 185°
2026-05-09 18:12 27.30989 -81.37577 11987 ft 237 kts 185°
2026-05-09 18:12 27.29330 -81.37630 11997 ft 237 kts 185°
2026-05-09 18:12 27.27686 -81.37684 11995 ft 238 kts 185°
2026-05-09 18:13 27.26021 -81.37739 11998 ft 240 kts 185°
2026-05-09 18:13 27.24338 -81.37792 11977 ft 240 kts 185°
2026-05-09 18:13 27.22678 -81.37845 11979 ft 239 kts 184°
2026-05-09 18:13 27.21032 -81.37897 11980 ft 238 kts 185°
2026-05-09 18:14 27.19378 -81.37959 11988 ft 237 kts 185°
2026-05-09 18:14 27.17726 -81.38012 11987 ft 237 kts 185°
2026-05-09 18:14 27.16076 -81.38062 11984 ft 237 kts 185°
2026-05-09 18:14 27.14436 -81.38114 11989 ft 237 kts 185°
2026-05-09 18:15 27.12778 -81.38172 11985 ft 238 kts 185°
2026-05-09 18:15 27.11139 -81.38229 11982 ft 238 kts 185°
2026-05-09 18:15 27.09468 -81.38280 11975 ft 237 kts 185°
2026-05-09 18:15 27.07836 -81.38328 11980 ft 236 kts 185°
2026-05-09 18:16 27.06197 -81.38383 11981 ft 236 kts 185°
2026-05-09 18:16 27.04550 -81.38441 11979 ft 235 kts 185°
2026-05-09 18:16 27.02917 -81.38492 11978 ft 235 kts 185°
2026-05-09 18:16 27.01296 -81.38541 11986 ft 234 kts 185°
2026-05-09 18:17 26.99664 -81.38596 11981 ft 233 kts 185°
2026-05-09 18:17 26.98042 -81.38652 11987 ft 233 kts 185°
2026-05-09 18:17 26.96443 -81.38703 11992 ft 233 kts 185°
2026-05-09 18:17 26.94805 -81.38754 11976 ft 233 kts 185°
2026-05-09 18:18 26.93184 -81.38807 11987 ft 233 kts 185°
2026-05-09 18:18 26.91561 -81.38862 11985 ft 233 kts 185°
2026-05-09 18:18 26.89948 -81.38913 11984 ft 233 kts 185°
2026-05-09 18:18 26.88323 -81.38966 11982 ft 232 kts 185°
2026-05-09 18:19 26.86732 -81.39018 11981 ft 231 kts 185°
2026-05-09 18:19 26.83528 -81.39157 11990 ft 230 kts 186°
2026-05-09 18:19 26.81930 -81.39281 11992 ft 230 kts 188°
2026-05-09 18:20 26.80340 -81.39565 11985 ft 229 kts 194°
2026-05-09 18:20 26.78779 -81.39923 11990 ft 229 kts 193°
2026-05-09 18:20 26.77213 -81.40204 11987 ft 230 kts 191°
2026-05-09 18:20 26.75626 -81.40467 11988 ft 229 kts 192°
2026-05-09 18:21 26.74046 -81.40767 11987 ft 229 kts 193°
2026-05-09 18:21 26.72493 -81.41073 11988 ft 228 kts 193°
2026-05-09 18:21 26.70927 -81.41359 11986 ft 228 kts 192°
2026-05-09 18:21 26.69352 -81.41642 11994 ft 228 kts 192°
2026-05-09 18:22 26.67788 -81.41934 11991 ft 227 kts 192°
2026-05-09 18:22 26.66249 -81.42225 11995 ft 227 kts 192°
2026-05-09 18:22 26.64682 -81.42515 11995 ft 227 kts 192°
2026-05-09 18:22 26.63135 -81.42797 11996 ft 227 kts 192°
2026-05-09 18:23 26.61563 -81.43089 11990 ft 227 kts 192°
2026-05-09 18:23 26.60022 -81.43377 11996 ft 226 kts 192°
2026-05-09 18:23 26.58459 -81.43666 11993 ft 226 kts 192°
2026-05-09 18:23 26.56901 -81.43953 11997 ft 226 kts 192°
2026-05-09 18:24 26.55364 -81.44238 11998 ft 226 kts 192°
2026-05-09 18:24 26.53808 -81.44527 11995 ft 226 kts 192°
2026-05-09 18:24 26.52257 -81.44813 11996 ft 226 kts 192°
2026-05-09 18:25 26.49144 -81.45387 12002 ft 226 kts 192°
2026-05-09 18:25 26.47609 -81.45673 11997 ft 226 kts 192°
2026-05-09 18:25 26.46045 -81.45961 11999 ft 226 kts 192°
2026-05-09 18:25 26.44509 -81.46246 11998 ft 225 kts 192°
2026-05-09 18:26 26.42957 -81.46532 12001 ft 226 kts 192°
2026-05-09 18:26 26.41403 -81.46817 11995 ft 225 kts 192°
2026-05-09 18:26 26.39861 -81.47103 11995 ft 225 kts 192°
2026-05-09 18:26 26.38326 -81.47387 11997 ft 225 kts 192°
2026-05-09 18:27 26.36783 -81.47670 12003 ft 225 kts 192°
2026-05-09 18:27 26.35755 -81.47860 11997 ft 225 kts 192°
2026-05-09 18:27 26.33703 -81.48239 11997 ft 224 kts 192°
2026-05-09 18:27 26.32158 -81.48525 12004 ft 225 kts 192°
2026-05-09 18:28 26.30602 -81.48811 11996 ft 225 kts 192°
2026-05-09 18:28 26.29069 -81.49093 12010 ft 225 kts 192°
2026-05-09 18:28 26.27514 -81.49383 12002 ft 225 kts 192°
2026-05-09 18:28 26.25955 -81.49669 11999 ft 225 kts 192°
2026-05-09 18:29 26.24434 -81.49945 12002 ft 224 kts 192°
2026-05-09 18:29 26.22887 -81.50232 12002 ft 224 kts 192°
2026-05-09 18:29 26.21342 -81.50517 12000 ft 224 kts 192°
2026-05-09 18:29 26.19820 -81.50795 12003 ft 223 kts 192°
2026-05-09 18:30 26.18273 -81.51080 12008 ft 223 kts 192°
2026-05-09 18:30 26.16753 -81.51358 12010 ft 223 kts 192°
2026-05-09 18:30 26.15223 -81.51640 12012 ft 223 kts 192°
2026-05-09 18:30 26.13705 -81.51920 12010 ft 223 kts 192°
2026-05-09 18:31 26.12163 -81.52202 12014 ft 222 kts 192°
2026-05-09 18:31 26.10628 -81.52485 12017 ft 223 kts 192°
2026-05-09 18:31 26.09103 -81.52769 12013 ft 224 kts 192°
2026-05-09 18:31 26.07556 -81.53050 12018 ft 224 kts 192°
2026-05-09 18:32 26.06012 -81.53330 12011 ft 224 kts 192°
2026-05-09 18:32 26.04487 -81.53609 12012 ft 224 kts 192°
2026-05-09 18:32 26.02946 -81.53894 12012 ft 223 kts 192°
2026-05-09 18:32 26.01403 -81.54179 12026 ft 224 kts 192°
2026-05-09 18:33 25.99880 -81.54458 12013 ft 225 kts 192°
2026-05-09 18:33 25.98335 -81.54739 12009 ft 223 kts 192°
2026-05-09 18:33 25.96805 -81.55019 12014 ft 224 kts 192°
2026-05-09 18:33 25.95257 -81.55303 12014 ft 225 kts 192°
2026-05-09 18:34 25.93698 -81.55590 12016 ft 228 kts 192°
2026-05-09 18:34 25.92106 -81.55882 12048 ft 233 kts 192°
2026-05-09 18:34 25.90513 -81.56170 12039 ft 236 kts 192°
2026-05-09 18:34 25.88879 -81.56470 12028 ft 238 kts 192°
2026-05-09 18:35 25.87225 -81.56775 12023 ft 240 kts 192°
2026-05-09 18:35 25.85578 -81.57075 12024 ft 242 kts 192°
2026-05-09 18:35 25.83898 -81.57381 12016 ft 244 kts 192°
2026-05-09 18:35 25.82241 -81.57685 12018 ft 245 kts 192°
2026-05-09 18:36 25.80547 -81.57995 12014 ft 245 kts 192°
2026-05-09 18:36 25.78862 -81.58302 12015 ft 246 kts 192°
2026-05-09 18:36 25.77185 -81.58608 12012 ft 247 kts 192°
2026-05-09 18:36 25.75485 -81.58919 12014 ft 247 kts 192°
2026-05-09 18:37 25.73782 -81.59229 12015 ft 247 kts 192°
2026-05-09 18:37 25.72078 -81.59540 12012 ft 248 kts 192°
2026-05-09 18:37 25.70391 -81.59848 12014 ft 248 kts 192°
2026-05-09 18:37 25.68674 -81.60161 12013 ft 249 kts 192°
2026-05-09 18:38 25.66970 -81.60471 12014 ft 249 kts 192°
2026-05-09 18:38 25.65254 -81.60785 12013 ft 249 kts 192°
2026-05-09 18:38 25.63557 -81.61093 12012 ft 249 kts 191°
2026-05-09 18:40 25.52133 -81.63172 12015 ft 250 kts 191°
2026-05-09 18:40 25.50418 -81.63484 12013 ft 250 kts 191°
2026-05-09 18:40 25.48691 -81.63798 12013 ft 250 kts 191°
2026-05-09 18:41 25.47000 -81.64105 12013 ft 250 kts 191°
2026-05-09 18:41 25.45275 -81.64419 12014 ft 250 kts 191°
2026-05-09 18:41 25.43576 -81.64727 12012 ft 249 kts 191°
2026-05-09 18:41 25.41856 -81.65040 12015 ft 250 kts 191°
2026-05-09 18:42 25.40153 -81.65348 12015 ft 249 kts 191°
2026-05-09 18:42 25.38442 -81.65658 12012 ft 249 kts 191°
2026-05-09 18:42 25.36724 -81.65971 12015 ft 249 kts 191°
2026-05-09 18:42 25.35009 -81.66282 12010 ft 249 kts 191°
2026-05-09 18:43 25.33287 -81.66593 12014 ft 249 kts 191°
2026-05-09 18:43 25.31597 -81.66900 12011 ft 249 kts 191°
2026-05-09 18:43 25.29871 -81.67212 12013 ft 249 kts 191°
2026-05-09 18:43 25.28170 -81.67521 12011 ft 249 kts 191°
2026-05-09 18:44 25.26452 -81.67831 12009 ft 250 kts 191°
2026-05-09 18:44 25.24736 -81.68142 12009 ft 249 kts 191°
2026-05-09 18:44 25.23019 -81.68452 12009 ft 249 kts 191°
2026-05-09 18:44 25.21317 -81.68761 12007 ft 249 kts 191°
2026-05-09 18:45 25.19612 -81.69069 12007 ft 249 kts 191°
2026-05-09 18:45 25.17891 -81.69380 12009 ft 249 kts 191°
2026-05-09 18:45 25.16191 -81.69687 12009 ft 249 kts 191°
2026-05-09 18:45 25.14471 -81.69998 12007 ft 249 kts 191°
2026-05-09 18:46 25.12750 -81.70309 12008 ft 249 kts 191°
2026-05-09 18:46 25.11042 -81.70617 12011 ft 249 kts 191°
2026-05-09 18:46 25.09323 -81.70928 12007 ft 249 kts 191°
2026-05-09 18:46 25.07626 -81.71234 12007 ft 249 kts 191°
2026-05-09 18:47 25.05908 -81.71544 12008 ft 249 kts 191°
2026-05-09 18:47 25.04218 -81.71849 12005 ft 249 kts 191°
2026-05-09 18:47 25.02499 -81.72159 12005 ft 249 kts 191°
2026-05-09 18:47 25.00791 -81.72467 12005 ft 249 kts 191°
2026-05-09 18:48 24.99073 -81.72777 12007 ft 249 kts 191°
2026-05-09 18:48 24.97384 -81.73081 12005 ft 248 kts 191°
2026-05-09 18:48 24.95673 -81.73389 12004 ft 248 kts 191°
2026-05-09 18:48 24.93957 -81.73698 12003 ft 248 kts 191°
2026-05-09 18:49 24.92275 -81.74001 12003 ft 248 kts 191°
2026-05-09 18:49 24.90558 -81.74310 12006 ft 248 kts 191°
2026-05-09 18:49 24.88866 -81.74614 12005 ft 248 kts 191°
2026-05-09 18:49 24.87151 -81.74923 12007 ft 248 kts 191°
2026-05-09 18:50 24.85436 -81.75232 12010 ft 248 kts 191°
2026-05-09 18:50 24.83729 -81.75538 12012 ft 248 kts 191°
2026-05-09 18:50 24.82042 -81.75841 12013 ft 248 kts 191°
2026-05-09 18:50 24.80325 -81.76150 12013 ft 248 kts 191°
2026-05-09 18:51 24.78619 -81.76456 12015 ft 248 kts 191°
2026-05-09 18:51 24.76927 -81.76760 12017 ft 248 kts 191°
2026-05-09 18:51 24.75222 -81.77067 12017 ft 248 kts 191°
2026-05-09 18:51 24.73534 -81.77369 12018 ft 248 kts 190°
2026-05-09 18:52 24.71821 -81.77676 12021 ft 248 kts 190°
2026-05-09 18:52 24.70119 -81.77982 12025 ft 248 kts 190°
2026-05-09 18:52 24.68409 -81.78288 12022 ft 248 kts 190°
2026-05-09 18:52 24.66721 -81.78591 12024 ft 248 kts 190°
2026-05-09 18:53 24.65011 -81.78897 12027 ft 248 kts 190°
2026-05-09 18:53 24.63309 -81.79202 12025 ft 248 kts 190°
2026-05-09 18:53 24.61622 -81.79505 12024 ft 248 kts 190°
2026-05-09 18:53 24.59905 -81.79526 11993 ft 251 kts 169°
2026-05-09 18:54 24.58381 -81.78601 11996 ft 256 kts 139°
2026-05-09 18:54 24.57460 -81.76905 12017 ft 263 kts 110°
2026-05-09 18:54 24.57379 -81.74912 12029 ft 268 kts 85°
2026-05-09 18:54 24.57689 -81.72872 12038 ft 270 kts 82°
2026-05-09 18:55 24.58014 -81.70832 12029 ft 270 kts 83°
2026-05-09 18:55 24.58285 -81.68781 12025 ft 270 kts 85°
2026-05-09 18:55 24.58501 -81.66756 12024 ft 270 kts 88°
2026-05-09 18:55 24.58501 -81.64677 12029 ft 269 kts 96°
2026-05-09 18:56 24.58397 -81.62645 12024 ft 269 kts 95°
2026-05-09 18:56 24.58390 -81.60583 12020 ft 269 kts 94°
2026-05-09 18:56 24.57932 -81.58648 12000 ft 262 kts 121°
2026-05-09 18:56 24.56711 -81.57224 12009 ft 254 kts 150°
2026-05-09 18:57 24.55062 -81.56681 12017 ft 247 kts 180°
2026-05-09 18:57 24.53423 -81.57148 12022 ft 245 kts 210°
2026-05-09 18:57 24.52258 -81.58485 12024 ft 247 kts 240°
2026-05-09 18:57 24.51894 -81.60315 12027 ft 253 kts 270°
2026-05-09 18:58 24.52440 -81.62152 12008 ft 260 kts 299°
2026-05-09 18:58 24.53754 -81.63534 12020 ft 265 kts 322°
2026-05-09 18:58 24.55298 -81.64618 12024 ft 266 kts 326°
2026-05-09 18:58 24.56899 -81.65670 12012 ft 266 kts 323°
2026-05-09 18:59 24.58129 -81.67118 11998 ft 260 kts 296°
2026-05-09 18:59 24.58652 -81.68978 12006 ft 254 kts 273°
2026-05-09 18:59 24.58446 -81.70879 12003 ft 250 kts 247°
2026-05-09 18:59 24.57441 -81.72398 12006 ft 246 kts 221°
2026-05-09 19:00 24.56326 -81.73805 11949 ft 251 kts 240°
2026-05-09 19:00 24.56504 -81.77695 11098 ft 276 kts 298°
2026-05-09 19:00 24.57857 -81.79197 10623 ft 281 kts 326°
2026-05-09 19:01 24.59721 -81.79846 10199 ft 284 kts 355°
2026-05-09 19:01 24.61647 -81.79490 9749 ft 285 kts 22°
2026-05-09 19:01 24.63219 -81.78203 9241 ft 283 kts 51°
2026-05-09 19:01 24.64071 -81.76287 8741 ft 281 kts 78°
2026-05-09 19:02 24.64029 -81.74162 8269 ft 277 kts 103°
2026-05-09 19:02 24.63862 -81.72129 8233 ft 258 kts 89°
2026-05-09 19:02 24.63951 -81.70236 8111 ft 243 kts 88°
2026-05-09 19:02 24.64015 -81.68389 7680 ft 242 kts 90°
2026-05-09 19:03 24.63978 -81.66569 7287 ft 236 kts 94°
2026-05-09 19:03 24.63877 -81.64811 6916 ft 227 kts 91°
2026-05-09 19:03 24.63897 -81.63085 6538 ft 218 kts 90°
2026-05-09 19:03 24.63857 -81.61458 5761 ft 216 kts 92°
2026-05-09 19:04 24.63268 -81.59823 4180 ft 252 kts 136°
2026-05-09 19:04 24.61658 -81.59228 3293 ft 246 kts 183°
2026-05-09 19:04 24.60126 -81.60061 2395 ft 249 kts 220°
2026-05-09 19:04 24.59580 -81.61841 1388 ft 247 kts 259°
2026-05-09 19:05 24.59260 -81.63533 876 ft 206 kts 252°
2026-05-09 19:05 24.58843 -81.64901 628 ft 168 kts 247°
2026-05-09 19:05 24.58491 -81.65951 311 ft 128 kts 247°
2026-05-09 19:05 24.58235 -81.66758 126 ft 100 kts 245°
2026-05-09 19:06 24.58018 -81.67419 38 ft 83 kts 240°
2026-05-09 19:06 24.57827 -81.67980 11 ft 71 kts 239°
2026-05-09 19:06 24.57693 -81.68340 11 ft 38 kts 250°
2026-05-09 19:06 24.57634 -81.68582 10 ft 29 kts 258°
2026-05-09 19:07 24.57590 -81.68778 11 ft 23 kts 248°
2026-05-09 19:07 24.57533 -81.68928 10 ft 20 kts 259°
2026-05-09 19:07 24.57514 -81.69080 12 ft 22 kts 262°
2026-05-09 19:07 24.57474 -81.69259 9 ft 27 kts 249°
2026-05-09 19:08 24.57402 -81.69457 10 ft 29 kts 253°
2026-05-09 19:08 24.57359 -81.69641 11 ft 19 kts 262°
2026-05-09 19:08 24.57417 -81.69724 12 ft 16 kts
2026-05-09 19:08 24.57531 -81.69735 12 ft 17 kts 353°
2026-05-09 19:09 24.57645 -81.69782 12 ft 18 kts 327°
2026-05-09 19:09 24.57750 -81.69851 12 ft 14 kts 308°
2026-05-09 19:09 24.57752 -81.69885 12 ft 3 kts 234°
2026-05-09 19:09 24.57745 -81.69897 12 ft 0 kts 133°